Content
SEND FEEDBACK

Daily
Averages
Monthly
Summary
United States of America

CENTREVILLE, MARYLAND


Home > North America > United States > Maryland
Elevation: 39 feet     Latitude: 39 03N     Longitude: 076 04W

WEATHER
 
SELECT A DAY
Number of Records: 150,983;   Date Range: 2/29/96 - 9/29/14
 
SHARE

PRINT THIS DATA

[ ← Previous Day ]
WEATHER ALMANAC - FEBRUARY 13, 2013
[ Next Day → ]
[ °C ]   °F
Weather ElementAverageHighLow
Temperature36.9 °F48.2 °F (12:53 pm)33.1 °F (5:09 am)
Dewpoint31.9 °F39.2 °F (3:35 pm)28.4 °F (4:49 am)
Humidity83 %100 % (5:48 pm)58 % (12:53 pm)
Barometer29.86 in30.01 in (1:49 am)29.68 in (5:48 pm)
Wind Speed7.2 mph10.4 mph (7:53 pm)
Weather ElementAverage
Visibility8 mi
Wind DirectionESE (117.2 °)

Weather ElementTotal
Precipitation0.05 in
Heating Degree Days24.4 (Base 65)
Averaged from 43 records on February 13, 2013
WEATHER CONDITIONS BREAKOUT
WIND DIRECTION BREAKOUT
WEATHER BY HOUR - FEBRUARY 13, 2013
[ °C ]   °F
Local TimeTemperatureDewpointHumidityBarometerVisibilityWind DirectionWind SpeedGust SpeedPrecipitationEventsConditions
12:28 AM36.9 °F31.1 °F80 %30.00 in10.0 miENE (60°)5.8 mphClear
12:48 AM36.7 °F31.6 °F82 %30.00 in10.0 miENE (60°)6.9 mphClear
1:09 AM36.9 °F31.5 °F81 %30.00 in10.0 miENE (60°)6.9 mphClear
1:29 AM35.4 °F30.7 °F83 %30.00 in10.0 miENE (60°)5.8 mphClear
1:49 AM34.9 °F30.0 °F82 %30.01 in10.0 miEast (80°)3.5 mphClear
2:09 AM34.0 °F30.0 °F85 %29.99 in10.0 miENE (70°)5.8 mphClear
2:29 AM35.1 °F30.2 °F82 %29.97 in10.0 miENE (70°)6.9 mphClear
2:49 AM35.8 °F29.7 °F78 %29.96 in10.0 miEast (80°)6.9 mphClear
3:09 AM35.6 °F29.5 °F78 %29.95 in10.0 miEast (80°)6.9 mphClear
3:29 AM35.2 °F29.3 °F79 %29.94 in10.0 miEast (80°)6.9 mphClear
3:49 AM35.6 °F29.1 °F77 %29.93 in10.0 miEast (100°)8.1 mphClear
4:09 AM35.2 °F28.9 °F78 %29.93 in10.0 miEast (90°)5.8 mphClear
4:29 AM34.5 °F28.6 °F79 %29.93 in10.0 miEast (100°)5.8 mphClear
4:49 AM33.8 °F28.4 °F81 %29.94 in10.0 miEast (90°)5.8 mphClear
5:09 AM33.1 °F28.4 °F83 %29.94 in10.0 miEast (90°)5.8 mphClear
5:29 AM33.4 °F28.8 °F83 %29.94 in10.0 miEast (90°)5.8 mphClear
5:49 AM34.3 °F29.1 °F81 %29.93 in10.0 miEast (90°)8.1 mphClear
5:53 AM35.6 °F28.4 °F75 %29.92 in10.0 miEast (80°)6.9 mphScattered Clouds
6:09 AM35.1 °F28.8 °F78 %29.92 in10.0 miEast (100°)9.2 mphClear
6:29 AM35.4 °F28.6 °F76 %29.93 in10.0 miEast (100°)8.1 mphClear
6:41 AM35.2 °F28.4 °F76 %29.93 in10.0 miEast (100°)8.1 mphClear
6:53 AM35.6 °F28.4 °F75 %29.92 in10.0 miEast (90°)6.9 mphMostly Cloudy
7:53 AM37.4 °F28.4 °F70 %29.91 in10.0 miEast (90°)9.2 mphMostly Cloudy
8:53 AM37.4 °F28.4 °F70 %29.92 in10.0 miEast (90°)9.2 mphMostly Cloudy
9:53 AM39.2 °F30.2 °F70 %29.89 in10.0 miEast (90°)9.2 mphOvercast
10:53 AM41.0 °F30.2 °F65 %29.89 in10.0 miESE (110°)6.9 mphOvercast
12:53 PM48.2 °F33.8 °F58 %29.79 in10.0 miESE (120°)9.2 mphMostly Cloudy
1:53 PM48.2 °F35.6 °F62 %29.75 in10.0 miESE (120°)9.2 mphOvercast
2:48 PM46.4 °F37.4 °F71 %29.73 in10.0 miESE (110°)6.9 mphOvercast
3:35 PM44.6 °F39.2 °F81 %29.70 in6.0 miEast (80°)4.6 mphRainLight Rain
3:48 PM44.6 °F39.2 °F81 %29.70 in4.0 miENE (70°)8.1 mphRainLight Rain
4:53 PM41.0 °F37.4 °F87 %29.69 in4.0 miEast (90°)9.2 mphRainLight Rain
5:48 PM39.2 °F39.2 °F100 %29.68 in2.0 miNE (50°)3.5 mphRainRain
6:49 PM37.4 °F37.4 °F100 %29.70 in3.0 miNE (50°)9.2 mphRainLight Rain
7:53 PM37.4 °F37.4 °F100 %29.70 in3.0 miNNE (20°)10.4 mphRainLight Rain
8:55 PM35.6 °F35.6 °F100 %29.71 in3.0 miNorth (10°)8.1 mphRainRain
9:51 PM34.5 °F34.5 °F100 %29.72 in5.0 miNorth (10°)6.9 mph0.03 inRainLight Rain
10:11 PM34.2 °F34.2 °F100 %29.73 in4.0 miNorth (350°)5.8 mphRainLight Rain
10:31 PM34.0 °F34.0 °F100 %29.74 in4.0 miNorth (360°)8.1 mphRainLight Rain
10:51 PM33.8 °F33.8 °F100 %29.75 in5.0 miNorth (360°)5.8 mphRainLight Rain
11:11 PM33.8 °F33.8 °F100 %29.77 in3.0 miNorth (350°)10.4 mphSnowLight Snow
11:31 PM33.1 °F33.1 °F100 %29.78 in3.0 miNNW (340°)8.1 mph0.01 inOvercast
11:51 PM33.1 °F33.1 °F100 %29.79 in3.0 miNorth (350°)6.9 mph0.01 inSnowLight Snow
Hourly data recorded from KESN, located miles away from Centreville, Maryland







STORIES FROM OUR PARTNERS